Year,Month,Day,Hour,Minute,Value (Times are PST for temperature in C)
2017,07,19,00,00,19.90
2017,07,19,00,01,19.90
2017,07,19,00,02,19.90
2017,07,19,00,03,19.90
2017,07,19,00,04,19.90
2017,07,19,00,05,19.90
2017,07,19,00,06,19.90
2017,07,19,00,07,19.90
2017,07,19,00,08,19.90
2017,07,19,00,09,19.80
2017,07,19,00,10,19.80
2017,07,19,00,11,19.80
2017,07,19,00,12,19.70
2017,07,19,00,13,19.70
2017,07,19,00,14,19.70
2017,07,19,00,15,19.70
2017,07,19,00,16,19.60
2017,07,19,00,17,19.60
2017,07,19,00,18,19.50
2017,07,19,00,19,19.50
2017,07,19,00,20,19.40
2017,07,19,00,21,19.40
2017,07,19,00,22,19.30
2017,07,19,00,23,19.30
2017,07,19,00,24,19.20
2017,07,19,00,25,19.20
2017,07,19,00,26,19.10
2017,07,19,00,27,19.10
2017,07,19,00,28,19.00
2017,07,19,00,29,18.90
2017,07,19,00,30,18.80
2017,07,19,00,31,18.80
2017,07,19,00,32,18.70
2017,07,19,00,33,18.60
2017,07,19,00,34,18.50
2017,07,19,00,35,18.50
2017,07,19,00,36,18.40
2017,07,19,00,37,18.30
2017,07,19,00,38,18.20
2017,07,19,00,39,18.20
2017,07,19,00,40,18.10
2017,07,19,00,41,18.10
2017,07,19,00,42,18.00
2017,07,19,00,43,18.00
2017,07,19,00,44,17.90
2017,07,19,00,45,17.90
2017,07,19,00,46,17.90
2017,07,19,00,47,17.80
2017,07,19,00,48,17.80
2017,07,19,00,49,17.80
2017,07,19,00,50,17.70
2017,07,19,00,51,17.70
2017,07,19,00,52,17.70
2017,07,19,00,53,17.60
2017,07,19,00,54,17.60
2017,07,19,00,55,17.60
2017,07,19,00,56,17.60
2017,07,19,00,57,17.60
2017,07,19,00,58,17.60
2017,07,19,00,59,17.50
2017,07,19,01,00,17.50
2017,07,19,01,01,17.50
2017,07,19,01,02,17.40
2017,07,19,01,03,17.40
2017,07,19,01,04,17.40
2017,07,19,01,05,17.40
2017,07,19,01,06,17.40
2017,07,19,01,07,17.40
2017,07,19,01,08,17.30
2017,07,19,01,09,17.30
2017,07,19,01,10,17.30
2017,07,19,01,11,17.30
2017,07,19,01,12,17.30
2017,07,19,01,13,17.30
2017,07,19,01,14,17.30
2017,07,19,01,15,17.40
2017,07,19,01,16,17.40
2017,07,19,01,17,17.40
2017,07,19,01,18,17.40
2017,07,19,01,19,17.40
2017,07,19,01,20,17.50
2017,07,19,01,21,17.50
2017,07,19,01,22,17.60
2017,07,19,01,23,17.60
2017,07,19,01,24,17.60
2017,07,19,01,25,17.60
2017,07,19,01,26,17.70
2017,07,19,01,27,17.70
2017,07,19,01,28,17.80
2017,07,19,01,29,17.80
2017,07,19,01,30,17.80
2017,07,19,01,31,17.90
2017,07,19,01,32,17.90
2017,07,19,01,33,17.90
2017,07,19,01,34,17.90
2017,07,19,01,35,17.90
2017,07,19,01,36,17.90
2017,07,19,01,37,17.90
2017,07,19,01,38,17.90
2017,07,19,01,39,18.00
2017,07,19,01,40,18.00
2017,07,19,01,41,18.00
2017,07,19,01,42,18.00
2017,07,19,01,43,18.00
2017,07,19,01,44,18.10
2017,07,19,01,45,18.10
2017,07,19,01,46,18.00
2017,07,19,01,47,18.00
2017,07,19,01,48,18.00
2017,07,19,01,49,18.00
2017,07,19,01,50,18.10
2017,07,19,01,51,18.10
2017,07,19,01,52,18.10
2017,07,19,01,53,18.10
2017,07,19,01,54,18.10
2017,07,19,01,55,18.10
2017,07,19,01,56,18.10
2017,07,19,01,57,18.10
2017,07,19,01,58,18.00
2017,07,19,01,59,18.00
2017,07,19,02,00,18.00
2017,07,19,02,01,18.00
2017,07,19,02,02,17.90
2017,07,19,02,03,17.90
2017,07,19,02,04,17.90
2017,07,19,02,05,17.90
2017,07,19,02,06,17.80
2017,07,19,02,07,17.80
2017,07,19,02,08,17.80
2017,07,19,02,09,17.70
2017,07,19,02,10,17.70
2017,07,19,02,11,17.70
2017,07,19,02,12,17.70
2017,07,19,02,13,17.70
2017,07,19,02,14,17.60
2017,07,19,02,15,17.60
2017,07,19,02,16,17.60
2017,07,19,02,17,17.60
2017,07,19,02,18,17.60
2017,07,19,02,19,17.50
2017,07,19,02,20,17.50
2017,07,19,02,21,17.50
2017,07,19,02,22,17.50
2017,07,19,02,23,17.50
2017,07,19,02,24,17.40
2017,07,19,02,25,17.40
2017,07,19,02,26,17.40
2017,07,19,02,27,17.40
2017,07,19,02,28,17.40
2017,07,19,02,29,17.40
2017,07,19,02,30,17.40
2017,07,19,02,31,17.40
2017,07,19,02,32,17.40
2017,07,19,02,33,17.40
2017,07,19,02,34,17.40
2017,07,19,02,35,17.40
2017,07,19,02,36,17.40
2017,07,19,02,37,17.40
2017,07,19,02,38,17.30
2017,07,19,02,39,17.30
2017,07,19,02,40,17.30
2017,07,19,02,41,17.40
2017,07,19,02,42,17.40
2017,07,19,02,43,17.40
2017,07,19,02,44,17.30
2017,07,19,02,45,17.30
2017,07,19,02,46,17.30
2017,07,19,02,47,17.30
2017,07,19,02,48,17.30
2017,07,19,02,49,17.30
2017,07,19,02,50,17.30
2017,07,19,02,51,17.20
2017,07,19,02,52,17.20
2017,07,19,02,53,17.20
2017,07,19,02,54,17.20
2017,07,19,02,55,17.20
2017,07,19,02,56,17.20
2017,07,19,02,57,17.20
2017,07,19,02,58,17.20
2017,07,19,02,59,17.20
2017,07,19,03,00,17.10
2017,07,19,03,01,17.10
2017,07,19,03,02,17.10
2017,07,19,03,03,17.10
2017,07,19,03,04,17.10
2017,07,19,03,05,17.10
2017,07,19,03,06,17.20
2017,07,19,03,07,17.20
2017,07,19,03,08,17.20
2017,07,19,03,09,17.20
2017,07,19,03,10,17.30
2017,07,19,03,11,17.30
2017,07,19,03,12,17.30
2017,07,19,03,13,17.40
2017,07,19,03,14,17.40
2017,07,19,03,15,17.40
2017,07,19,03,16,17.30
2017,07,19,03,17,17.30
2017,07,19,03,18,17.30
2017,07,19,03,19,17.20
2017,07,19,03,20,17.20
2017,07,19,03,21,17.10
2017,07,19,03,22,17.10
2017,07,19,03,23,17.00
2017,07,19,03,24,16.90
2017,07,19,03,25,16.80
2017,07,19,03,26,16.80
2017,07,19,03,27,16.80
2017,07,19,03,28,16.70
2017,07,19,03,29,16.70
2017,07,19,03,30,16.70
2017,07,19,03,31,16.70
2017,07,19,03,32,16.80
2017,07,19,03,33,16.80
2017,07,19,03,34,16.80
2017,07,19,03,35,16.80
2017,07,19,03,36,16.80
2017,07,19,03,37,16.80
2017,07,19,03,38,16.80
2017,07,19,03,39,16.80
2017,07,19,03,40,16.80
2017,07,19,03,41,16.70
2017,07,19,03,42,16.70
2017,07,19,03,43,16.70
2017,07,19,03,44,16.70
2017,07,19,03,45,16.70
2017,07,19,03,46,16.60
2017,07,19,03,47,16.60
2017,07,19,03,48,16.60
2017,07,19,03,49,16.50
2017,07,19,03,50,16.50
2017,07,19,03,51,16.50
2017,07,19,03,52,16.40
2017,07,19,03,53,16.40
2017,07,19,03,54,16.40
2017,07,19,03,55,16.40
2017,07,19,03,56,16.40
2017,07,19,03,57,16.30
2017,07,19,03,58,16.30
2017,07,19,03,59,16.30
2017,07,19,04,00,16.30
2017,07,19,04,01,16.30
2017,07,19,04,02,16.20
2017,07,19,04,03,16.20
2017,07,19,04,04,16.20
2017,07,19,04,05,16.20
2017,07,19,04,06,16.20
2017,07,19,04,07,16.20
2017,07,19,04,08,16.20
2017,07,19,04,09,16.20
2017,07,19,04,10,16.10
2017,07,19,04,11,16.10
2017,07,19,04,12,16.10
2017,07,19,04,13,16.10
2017,07,19,04,14,16.10
2017,07,19,04,15,16.10
2017,07,19,04,16,16.10
2017,07,19,04,17,16.10
2017,07,19,04,18,16.00
2017,07,19,04,19,16.00
2017,07,19,04,20,16.00
2017,07,19,04,21,16.00
2017,07,19,04,22,16.00
2017,07,19,04,23,16.00
2017,07,19,04,24,15.90
2017,07,19,04,25,15.90
2017,07,19,04,26,15.90
2017,07,19,04,27,15.90
2017,07,19,04,28,15.90
2017,07,19,04,29,15.90
2017,07,19,04,30,15.90
2017,07,19,04,31,15.90
2017,07,19,04,32,15.90
2017,07,19,04,33,15.90
2017,07,19,04,34,15.90
2017,07,19,04,35,15.90
2017,07,19,04,36,15.90
2017,07,19,04,37,15.90
2017,07,19,04,38,15.90
2017,07,19,04,39,15.90
2017,07,19,04,40,15.90
2017,07,19,04,41,15.90
2017,07,19,04,42,15.90
2017,07,19,04,43,15.90
2017,07,19,04,44,15.90
2017,07,19,04,45,15.90
2017,07,19,04,46,15.90
2017,07,19,04,47,15.90
2017,07,19,04,48,15.80
2017,07,19,04,49,15.80
2017,07,19,04,50,15.80
2017,07,19,04,51,15.80
2017,07,19,04,52,15.80
2017,07,19,04,53,15.80
2017,07,19,04,54,15.80
2017,07,19,04,55,15.80
2017,07,19,04,56,15.80
2017,07,19,04,57,15.90
2017,07,19,04,58,15.90
2017,07,19,04,59,15.90
2017,07,19,05,00,15.90
2017,07,19,05,01,15.90
2017,07,19,05,02,16.00
2017,07,19,05,03,16.00
2017,07,19,05,04,16.00
2017,07,19,05,05,16.00
2017,07,19,05,06,16.00
2017,07,19,05,07,16.00
2017,07,19,05,08,16.10
2017,07,19,05,09,16.10
2017,07,19,05,10,16.10
2017,07,19,05,11,16.10
2017,07,19,05,12,16.10
2017,07,19,05,13,16.10
2017,07,19,05,14,16.10
2017,07,19,05,15,16.20
2017,07,19,05,16,16.20
2017,07,19,05,17,16.20
2017,07,19,05,18,16.20
2017,07,19,05,19,16.20
2017,07,19,05,20,16.20
2017,07,19,05,21,16.20
2017,07,19,05,22,16.20
2017,07,19,05,23,16.20
2017,07,19,05,24,16.20
2017,07,19,05,25,16.20
2017,07,19,05,26,16.20
2017,07,19,05,27,16.20
2017,07,19,05,28,16.20
2017,07,19,05,29,16.10
2017,07,19,05,30,16.10
2017,07,19,05,31,16.10
2017,07,19,05,32,16.00
2017,07,19,05,33,16.00
2017,07,19,05,34,16.00
2017,07,19,05,35,16.00
2017,07,19,05,36,16.00
2017,07,19,05,37,16.00
2017,07,19,05,38,16.00
2017,07,19,05,39,15.90
2017,07,19,05,40,15.90
2017,07,19,05,41,15.90
2017,07,19,05,42,15.90
2017,07,19,05,43,15.80
2017,07,19,05,44,15.80
2017,07,19,05,45,15.80
2017,07,19,05,46,15.80
2017,07,19,05,47,15.70
2017,07,19,05,48,15.70
2017,07,19,05,49,15.60
2017,07,19,05,50,15.60
2017,07,19,05,51,15.50
2017,07,19,05,52,15.50
2017,07,19,05,53,15.40
2017,07,19,05,54,15.40
2017,07,19,05,55,15.40
2017,07,19,05,56,15.40
2017,07,19,05,57,15.40
2017,07,19,05,58,15.40
2017,07,19,05,59,15.40
2017,07,19,06,00,15.30
2017,07,19,06,01,15.30
2017,07,19,06,02,15.30
2017,07,19,06,03,15.30
2017,07,19,06,04,15.30
2017,07,19,06,05,15.30
2017,07,19,06,06,15.30
2017,07,19,06,07,15.30
2017,07,19,06,08,15.30
2017,07,19,06,09,15.20
2017,07,19,06,10,15.20
2017,07,19,06,11,15.20
2017,07,19,06,12,15.20
2017,07,19,06,13,15.20
2017,07,19,06,14,15.20
2017,07,19,06,15,15.20
2017,07,19,06,16,15.20
2017,07,19,06,17,15.20
2017,07,19,06,18,15.20
2017,07,19,06,19,15.20
2017,07,19,06,20,15.20
2017,07,19,06,21,15.30
2017,07,19,06,22,15.30
2017,07,19,06,23,15.30
2017,07,19,06,24,15.30
2017,07,19,06,25,15.30
2017,07,19,06,26,15.30
2017,07,19,06,27,15.30
2017,07,19,06,28,15.30
2017,07,19,06,29,15.40
2017,07,19,06,30,15.40
2017,07,19,06,31,15.40
2017,07,19,06,32,15.40
2017,07,19,06,33,15.50
2017,07,19,06,34,15.50
2017,07,19,06,35,15.60
2017,07,19,06,36,15.60
2017,07,19,06,37,15.60
2017,07,19,06,38,15.60
2017,07,19,06,39,15.60
2017,07,19,06,40,15.70
2017,07,19,06,41,15.70
2017,07,19,06,42,15.70
2017,07,19,06,43,15.70
2017,07,19,06,44,15.70
2017,07,19,06,45,15.80
2017,07,19,06,46,15.80
2017,07,19,06,47,15.90
2017,07,19,06,48,15.90
2017,07,19,06,49,16.00
2017,07,19,06,50,16.20
2017,07,19,06,51,16.30
2017,07,19,06,52,16.30
2017,07,19,06,53,16.30
2017,07,19,06,54,16.40
2017,07,19,06,55,16.40
2017,07,19,06,56,16.40
2017,07,19,06,57,16.40
2017,07,19,06,58,16.40
2017,07,19,06,59,16.30
2017,07,19,07,00,16.30
2017,07,19,07,01,16.30
2017,07,19,07,02,16.30
2017,07,19,07,03,16.30
2017,07,19,07,04,16.30
2017,07,19,07,05,16.30
2017,07,19,07,06,16.30
2017,07,19,07,07,16.30
2017,07,19,07,08,16.30
2017,07,19,07,09,16.40
2017,07,19,07,10,16.40
2017,07,19,07,11,16.40
2017,07,19,07,12,16.40
2017,07,19,07,13,16.40
2017,07,19,07,14,16.40
2017,07,19,07,15,16.40
2017,07,19,07,16,16.50
2017,07,19,07,17,16.50
2017,07,19,07,18,16.50
2017,07,19,07,19,16.50
2017,07,19,07,20,16.60
2017,07,19,07,21,16.60
2017,07,19,07,22,16.70
2017,07,19,07,23,16.70
2017,07,19,07,24,16.80
2017,07,19,07,25,16.80
2017,07,19,07,26,16.90
2017,07,19,07,27,16.90
2017,07,19,07,28,17.00
2017,07,19,07,29,17.00
2017,07,19,07,30,17.10
2017,07,19,07,31,17.20
2017,07,19,07,32,17.30
2017,07,19,07,33,17.40
2017,07,19,07,34,17.50
2017,07,19,07,35,17.60
2017,07,19,07,36,17.70
2017,07,19,07,37,17.80
2017,07,19,07,38,17.80
2017,07,19,07,39,17.80
2017,07,19,07,40,17.80
2017,07,19,07,41,17.80
2017,07,19,07,42,17.80
2017,07,19,07,43,17.80
2017,07,19,07,44,17.80
2017,07,19,07,45,17.80
2017,07,19,07,46,17.80
2017,07,19,07,47,17.80
2017,07,19,07,48,17.80
2017,07,19,07,49,17.80
2017,07,19,07,50,17.90
2017,07,19,07,51,17.90
2017,07,19,07,52,17.90
2017,07,19,07,53,17.90
2017,07,19,07,54,17.80
2017,07,19,07,55,17.80
2017,07,19,07,56,17.80
2017,07,19,07,57,17.80
2017,07,19,07,58,17.80
2017,07,19,07,59,17.80
2017,07,19,08,00,17.70
2017,07,19,08,01,17.70
2017,07,19,08,02,17.70
2017,07,19,08,03,17.70
2017,07,19,08,04,17.70
2017,07,19,08,05,17.70
2017,07,19,08,06,17.70
2017,07,19,08,07,17.80
2017,07,19,08,08,17.80
2017,07,19,08,09,17.80
2017,07,19,08,10,17.80
2017,07,19,08,11,17.80
2017,07,19,08,12,17.80
2017,07,19,08,13,17.80
2017,07,19,08,14,17.80
2017,07,19,08,15,17.90
2017,07,19,08,16,17.90
2017,07,19,08,17,17.90
2017,07,19,08,18,17.90
2017,07,19,08,19,17.90
2017,07,19,08,20,18.00
2017,07,19,08,21,18.00
2017,07,19,08,22,18.00
2017,07,19,08,23,18.10
2017,07,19,08,24,18.10
2017,07,19,08,25,18.10
2017,07,19,08,26,18.10
2017,07,19,08,27,18.20
2017,07,19,08,28,18.20
2017,07,19,08,29,18.20
2017,07,19,08,30,18.20
2017,07,19,08,31,18.20
2017,07,19,08,32,18.20
2017,07,19,08,33,18.20
2017,07,19,08,34,18.10
2017,07,19,08,35,18.10
2017,07,19,08,36,18.10
2017,07,19,08,37,18.10
2017,07,19,08,38,18.10
2017,07,19,08,39,18.10
2017,07,19,08,40,18.10
2017,07,19,08,41,18.10
2017,07,19,08,42,18.10
2017,07,19,08,43,18.10
2017,07,19,08,44,18.10
2017,07,19,08,45,18.10
2017,07,19,08,46,18.20
2017,07,19,08,47,18.20
2017,07,19,08,48,18.20
2017,07,19,08,49,18.20
2017,07,19,08,50,18.20
2017,07,19,08,51,18.30
2017,07,19,08,52,18.30
2017,07,19,08,53,18.30
2017,07,19,08,54,18.30
2017,07,19,08,55,18.40
2017,07,19,08,56,18.40
2017,07,19,08,57,18.50
2017,07,19,08,58,18.50
2017,07,19,08,59,18.60
2017,07,19,09,00,18.60
2017,07,19,09,01,18.70
2017,07,19,09,02,18.90
2017,07,19,09,03,19.00
2017,07,19,09,04,19.10
2017,07,19,09,05,19.10
2017,07,19,09,06,19.20
2017,07,19,09,07,19.20
2017,07,19,09,08,19.30
2017,07,19,09,09,19.40
2017,07,19,09,10,19.50
2017,07,19,09,11,19.60
2017,07,19,09,12,19.70
2017,07,19,09,13,19.70
2017,07,19,09,14,19.70
2017,07,19,09,15,19.70
2017,07,19,09,16,19.70
2017,07,19,09,17,19.80
2017,07,19,09,18,19.80
2017,07,19,09,19,19.90
2017,07,19,09,20,20.10
2017,07,19,09,21,20.20
2017,07,19,09,22,20.30
2017,07,19,09,23,20.40
2017,07,19,09,24,20.60
2017,07,19,09,25,20.70
2017,07,19,09,26,20.80
2017,07,19,09,27,20.90
2017,07,19,09,28,20.90
2017,07,19,09,29,20.90
2017,07,19,09,30,20.90
2017,07,19,09,31,21.00
2017,07,19,09,32,21.00
2017,07,19,09,33,21.10
2017,07,19,09,34,21.20
2017,07,19,09,35,21.20
2017,07,19,09,36,21.10
2017,07,19,09,37,21.00
2017,07,19,09,38,21.00
2017,07,19,09,39,21.00
2017,07,19,09,40,21.00
2017,07,19,09,41,20.90
2017,07,19,09,42,20.90
2017,07,19,09,43,20.80
2017,07,19,09,44,20.80
2017,07,19,09,45,20.70
2017,07,19,09,46,20.70
2017,07,19,09,47,20.60
2017,07,19,09,48,20.60
2017,07,19,09,49,20.70
2017,07,19,09,50,20.70
2017,07,19,09,51,20.90
2017,07,19,09,52,21.00
2017,07,19,09,53,21.10
2017,07,19,09,54,21.20
2017,07,19,09,55,21.20
2017,07,19,09,56,21.20
2017,07,19,09,57,21.20
2017,07,19,09,58,21.20
2017,07,19,09,59,21.20
2017,07,19,10,00,21.10
2017,07,19,10,01,21.10
2017,07,19,10,02,21.10
2017,07,19,10,03,21.10
2017,07,19,10,04,21.10
2017,07,19,10,05,21.10
2017,07,19,10,06,21.10
2017,07,19,10,07,21.10
2017,07,19,10,08,21.10
2017,07,19,10,09,21.10
2017,07,19,10,10,21.10
2017,07,19,10,11,21.10
2017,07,19,10,12,20.80
2017,07,19,10,13,20.80
2017,07,19,10,14,20.70
2017,07,19,10,15,20.60
2017,07,19,10,16,20.50
2017,07,19,10,17,20.50
2017,07,19,10,18,20.40
2017,07,19,10,19,20.30
2017,07,19,10,20,20.30
2017,07,19,10,21,20.30
2017,07,19,10,22,20.40
2017,07,19,10,23,20.40
2017,07,19,10,24,20.40
2017,07,19,10,25,20.40
2017,07,19,10,26,20.40
2017,07,19,10,27,20.50
2017,07,19,10,28,20.50
2017,07,19,10,29,20.50
2017,07,19,10,30,20.50
2017,07,19,10,31,20.50
2017,07,19,10,32,20.50
2017,07,19,10,33,20.50
2017,07,19,10,34,20.40
2017,07,19,10,35,20.40
2017,07,19,10,36,20.50
2017,07,19,10,37,20.50
2017,07,19,10,38,20.60
2017,07,19,10,39,20.60
2017,07,19,10,40,20.70
2017,07,19,10,41,20.70
2017,07,19,10,42,20.80
2017,07,19,10,43,20.70
2017,07,19,10,44,20.70
2017,07,19,10,45,20.70
2017,07,19,10,46,20.70
2017,07,19,10,47,20.70
2017,07,19,10,48,20.70
2017,07,19,10,49,20.60
2017,07,19,10,50,20.60
2017,07,19,10,51,20.60
2017,07,19,10,52,20.60
2017,07,19,10,53,20.60
2017,07,19,10,54,20.60
2017,07,19,10,55,20.50
2017,07,19,10,56,20.50
2017,07,19,10,57,20.50
2017,07,19,10,58,20.60
2017,07,19,10,59,20.60
2017,07,19,11,00,20.60
2017,07,19,11,01,20.60
2017,07,19,11,02,20.50
2017,07,19,11,03,20.40
2017,07,19,11,04,20.30
2017,07,19,11,05,20.30
2017,07,19,11,06,20.40
2017,07,19,11,07,20.40
2017,07,19,11,08,20.50
2017,07,19,11,09,20.50
2017,07,19,11,10,20.60
2017,07,19,11,11,20.50
2017,07,19,11,12,20.50
2017,07,19,11,13,20.60
2017,07,19,11,14,20.70
2017,07,19,11,15,20.80
2017,07,19,11,16,21.00
2017,07,19,11,17,21.20
2017,07,19,11,18,21.30
2017,07,19,11,19,21.40
2017,07,19,11,20,21.40
2017,07,19,11,21,21.30
2017,07,19,11,22,21.30
2017,07,19,11,23,21.30
2017,07,19,11,24,21.30
2017,07,19,11,25,21.40
2017,07,19,11,26,21.50
2017,07,19,11,27,21.50
2017,07,19,11,28,21.50
2017,07,19,11,29,21.50
2017,07,19,11,30,21.50
2017,07,19,11,31,21.50
2017,07,19,11,32,21.60
2017,07,19,11,33,21.60
2017,07,19,11,34,21.60
2017,07,19,11,35,21.60
2017,07,19,11,36,21.50
2017,07,19,11,37,21.50
2017,07,19,11,38,21.40
2017,07,19,11,39,21.40
2017,07,19,11,40,21.40
2017,07,19,11,41,21.40
2017,07,19,11,42,21.40
2017,07,19,11,43,21.40
2017,07,19,11,44,21.40
2017,07,19,11,45,21.50
2017,07,19,11,46,21.40
2017,07,19,11,47,21.40
2017,07,19,11,48,21.50
2017,07,19,11,49,21.60
2017,07,19,11,50,21.70
2017,07,19,11,51,21.70
2017,07,19,11,52,21.70
2017,07,19,11,53,21.70
2017,07,19,11,54,21.80
2017,07,19,11,55,21.80
2017,07,19,11,56,21.80
2017,07,19,11,57,21.80
2017,07,19,11,58,21.80
2017,07,19,11,59,21.70
2017,07,19,12,00,21.70
2017,07,19,12,01,21.80
2017,07,19,12,02,21.80
2017,07,19,12,03,21.80
2017,07,19,12,04,21.90
2017,07,19,12,05,21.80
2017,07,19,12,06,21.90
2017,07,19,12,07,21.90
2017,07,19,12,08,22.00
2017,07,19,12,09,22.10
2017,07,19,12,10,22.10
2017,07,19,12,11,22.10
2017,07,19,12,12,22.10
2017,07,19,12,13,22.00
2017,07,19,12,14,21.90
2017,07,19,12,15,21.90
2017,07,19,12,16,21.90
2017,07,19,12,17,21.90
2017,07,19,12,18,21.80
2017,07,19,12,19,21.80
2017,07,19,12,20,21.70
2017,07,19,12,21,21.70
2017,07,19,12,22,21.70
2017,07,19,12,23,21.70
2017,07,19,12,24,21.50
2017,07,19,12,25,21.40
2017,07,19,12,26,21.30
2017,07,19,12,27,21.20
2017,07,19,12,28,21.30
2017,07,19,12,29,21.30
2017,07,19,12,30,21.30
2017,07,19,12,31,21.30
2017,07,19,12,32,21.30
2017,07,19,12,33,21.20
2017,07,19,12,34,21.10
2017,07,19,12,35,21.00
2017,07,19,12,36,20.90
2017,07,19,12,37,20.80
2017,07,19,12,38,20.80
2017,07,19,12,39,20.80
2017,07,19,12,40,20.80
2017,07,19,12,41,20.80
2017,07,19,12,42,20.80
2017,07,19,12,43,20.90
2017,07,19,12,44,21.00
2017,07,19,12,45,21.10
2017,07,19,12,46,21.10
2017,07,19,12,47,21.10
2017,07,19,12,48,21.10
2017,07,19,12,49,21.10
2017,07,19,12,50,21.10
2017,07,19,12,51,21.10
2017,07,19,12,52,21.10
2017,07,19,12,53,21.10
2017,07,19,12,54,21.10
2017,07,19,12,55,21.10
2017,07,19,12,56,21.00
2017,07,19,12,57,21.00
2017,07,19,12,58,20.90
2017,07,19,12,59,20.90
2017,07,19,13,00,21.00
2017,07,19,13,01,21.10
2017,07,19,13,02,21.10
2017,07,19,13,03,21.10
2017,07,19,13,04,21.00
2017,07,19,13,05,21.00
2017,07,19,13,06,21.10
2017,07,19,13,07,21.10
2017,07,19,13,08,21.10
2017,07,19,13,09,21.10
2017,07,19,13,10,21.20
2017,07,19,13,11,21.20
2017,07,19,13,12,21.20
2017,07,19,13,13,21.20
2017,07,19,13,14,21.20
2017,07,19,13,15,21.20
2017,07,19,13,16,21.30
2017,07,19,13,17,21.30
2017,07,19,13,18,21.30
2017,07,19,13,19,21.30
2017,07,19,13,20,21.30
2017,07,19,13,21,21.30
2017,07,19,13,22,21.30
2017,07,19,13,23,21.40
2017,07,19,13,24,21.40
2017,07,19,13,25,21.50
2017,07,19,13,26,21.60
2017,07,19,13,27,21.70
2017,07,19,13,28,21.70
2017,07,19,13,29,21.80
2017,07,19,13,30,21.90
2017,07,19,13,31,22.00
2017,07,19,13,32,22.10
2017,07,19,13,33,22.10
2017,07,19,13,34,22.10
2017,07,19,13,35,22.00
2017,07,19,13,36,21.90
2017,07,19,13,37,21.80
2017,07,19,13,38,21.80
2017,07,19,13,39,21.80
2017,07,19,13,40,21.80
2017,07,19,13,41,21.80
2017,07,19,13,42,21.80
2017,07,19,13,43,21.80
2017,07,19,13,44,21.80
2017,07,19,13,45,21.80
2017,07,19,13,46,21.80
2017,07,19,13,47,21.90
2017,07,19,13,48,22.00
2017,07,19,13,49,22.10
2017,07,19,13,50,22.20
2017,07,19,13,51,22.30
2017,07,19,13,52,22.30
2017,07,19,13,53,22.40
2017,07,19,13,54,22.50
2017,07,19,13,55,22.60
2017,07,19,13,56,22.70
2017,07,19,13,57,22.70
2017,07,19,13,58,22.80
2017,07,19,13,59,22.80
2017,07,19,14,00,22.90
2017,07,19,14,01,22.90
2017,07,19,14,02,22.90
2017,07,19,14,03,22.90
2017,07,19,14,04,22.90
2017,07,19,14,05,23.00
2017,07,19,14,06,23.00
2017,07,19,14,07,23.10
2017,07,19,14,08,23.10
2017,07,19,14,09,23.10
2017,07,19,14,10,23.10
2017,07,19,14,11,23.20
2017,07,19,14,12,23.20
2017,07,19,14,13,23.10
2017,07,19,14,14,23.00
2017,07,19,14,15,22.80
2017,07,19,14,16,22.80
2017,07,19,14,17,22.80
2017,07,19,14,18,22.80
2017,07,19,14,19,22.80
2017,07,19,14,20,22.80
2017,07,19,14,21,22.80
2017,07,19,14,22,22.70
2017,07,19,14,23,22.60
2017,07,19,14,24,22.50
2017,07,19,14,25,22.40
2017,07,19,14,26,22.30
2017,07,19,14,27,22.20
2017,07,19,14,28,22.20
2017,07,19,14,29,22.20
2017,07,19,14,30,22.20
2017,07,19,14,31,22.20
2017,07,19,14,32,22.20
2017,07,19,14,33,22.20
2017,07,19,14,34,22.30
2017,07,19,14,35,22.40
2017,07,19,14,36,22.40
2017,07,19,14,37,22.40
2017,07,19,14,38,22.40
2017,07,19,14,39,22.40
2017,07,19,14,40,22.30
2017,07,19,14,41,22.40
2017,07,19,14,42,22.40
2017,07,19,14,43,22.40
2017,07,19,14,44,22.40
2017,07,19,14,45,22.30
2017,07,19,14,46,22.30
2017,07,19,14,47,22.20
2017,07,19,14,48,22.20
2017,07,19,14,49,22.20
2017,07,19,14,50,22.30
2017,07,19,14,51,22.30
2017,07,19,14,52,22.30
2017,07,19,14,53,22.30
2017,07,19,14,54,22.30
2017,07,19,14,55,22.30
2017,07,19,14,56,22.30
2017,07,19,14,57,22.30
2017,07,19,14,58,22.30
2017,07,19,14,59,22.30
2017,07,19,15,00,22.20
2017,07,19,15,01,22.20
2017,07,19,15,02,22.20
2017,07,19,15,03,22.20
2017,07,19,15,04,22.30
2017,07,19,15,05,22.30
2017,07,19,15,06,22.40
2017,07,19,15,07,22.40
2017,07,19,15,08,22.40
2017,07,19,15,09,22.40
2017,07,19,15,10,22.50
2017,07,19,15,11,22.50
2017,07,19,15,12,22.60
2017,07,19,15,13,22.60
2017,07,19,15,14,22.60
2017,07,19,15,15,22.60
2017,07,19,15,16,22.60
2017,07,19,15,17,22.50
2017,07,19,15,18,22.60
2017,07,19,15,19,22.60
2017,07,19,15,20,22.60
2017,07,19,15,21,22.50
2017,07,19,15,22,22.40
2017,07,19,15,23,22.40
2017,07,19,15,24,22.40
2017,07,19,15,25,22.30
2017,07,19,15,26,22.30
2017,07,19,15,27,22.30
2017,07,19,15,28,22.30
2017,07,19,15,29,22.30
2017,07,19,15,30,22.30
2017,07,19,15,31,22.40
2017,07,19,15,32,22.40
2017,07,19,15,33,22.40
2017,07,19,15,34,22.40
2017,07,19,15,35,22.50
2017,07,19,15,36,22.50
2017,07,19,15,37,22.60
2017,07,19,15,38,22.60
2017,07,19,15,39,22.70
2017,07,19,15,40,22.70
2017,07,19,15,41,22.70
2017,07,19,15,42,22.80
2017,07,19,15,43,22.80
2017,07,19,15,44,22.80
2017,07,19,15,45,22.80
2017,07,19,15,46,22.80
2017,07,19,15,47,22.70
2017,07,19,15,48,22.70
2017,07,19,15,49,22.60
2017,07,19,15,50,22.60
2017,07,19,15,51,22.60
2017,07,19,15,52,22.60
2017,07,19,15,53,22.60
2017,07,19,15,54,22.60
2017,07,19,15,55,22.70
2017,07,19,15,56,22.70
2017,07,19,15,57,22.60
2017,07,19,15,58,22.60
2017,07,19,15,59,22.50
2017,07,19,16,00,22.50
2017,07,19,16,01,22.50
2017,07,19,16,02,22.40
2017,07,19,16,03,22.40
2017,07,19,16,04,22.40
2017,07,19,16,05,22.40
2017,07,19,16,06,22.30
2017,07,19,16,07,22.30
2017,07,19,16,08,22.20
2017,07,19,16,09,22.20
2017,07,19,16,10,22.20
2017,07,19,16,11,22.10
2017,07,19,16,12,22.10
2017,07,19,16,13,22.10
2017,07,19,16,14,22.10
2017,07,19,16,15,22.10
2017,07,19,16,16,22.20
2017,07,19,16,17,22.20
2017,07,19,16,18,22.20
2017,07,19,16,19,22.20
2017,07,19,16,20,22.20
2017,07,19,16,21,22.10
2017,07,19,16,22,22.10
2017,07,19,16,23,22.10
2017,07,19,16,24,22.10
2017,07,19,16,25,22.10
2017,07,19,16,26,22.10
2017,07,19,16,27,22.10
2017,07,19,16,28,22.20
2017,07,19,16,29,22.20
2017,07,19,16,30,22.20
2017,07,19,16,31,22.10
2017,07,19,16,32,22.10
2017,07,19,16,33,22.10
2017,07,19,16,34,22.00
2017,07,19,16,35,22.00
2017,07,19,16,36,21.90
2017,07,19,16,37,21.90
2017,07,19,16,38,21.90
2017,07,19,16,39,21.90
2017,07,19,16,40,21.90
2017,07,19,16,41,21.90
2017,07,19,16,42,21.90
2017,07,19,16,43,22.00
2017,07,19,16,44,22.00
2017,07,19,16,45,22.10
2017,07,19,16,46,22.20
2017,07,19,16,47,22.20
2017,07,19,16,48,22.30
2017,07,19,16,49,22.40
2017,07,19,16,50,22.40
2017,07,19,16,51,22.50
2017,07,19,16,52,22.60
2017,07,19,16,53,22.70
2017,07,19,16,54,22.90
2017,07,19,16,55,23.00
2017,07,19,16,56,23.10
2017,07,19,16,57,23.20
2017,07,19,16,58,23.30
2017,07,19,16,59,23.30
2017,07,19,17,00,23.40
2017,07,19,17,01,23.50
2017,07,19,17,02,23.50
2017,07,19,17,03,23.60
2017,07,19,17,04,23.60
2017,07,19,17,05,23.50
2017,07,19,17,06,23.50
2017,07,19,17,07,23.50
2017,07,19,17,08,23.60
2017,07,19,17,09,23.60
2017,07,19,17,10,23.60
2017,07,19,17,11,23.50
2017,07,19,17,12,23.50
2017,07,19,17,13,23.40
2017,07,19,17,14,23.40
2017,07,19,17,15,23.30
2017,07,19,17,16,23.30
2017,07,19,17,17,23.20
2017,07,19,17,18,23.20
2017,07,19,17,19,23.10